{"data":{"norad_id":64049,"intl_designator":"2025-103B","name":"TIANYI B","alt_names":[],"object_type":"PAYLOAD","status":"ACTIVE","operator":null,"country":"PRC","launch_date":"2025-05-17","launch_site_code":"JSC","launch_vehicle":null,"mission":null,"orbit_class":"UNKNOWN","rcs_meters":null,"size_class":null,"mass_kg":null,"dimensions":null,"purposes":[],"wikipedia_slug":null,"has_3d_model":false,"image_url":null,"decayed_at":null,"tle_current":{"epoch":"2026-09-21T22:29:23.795808Z","epoch_age_seconds":71335,"freshness":"FRESH","line1":"1 64049U 25103B   26264.93708097  .00002464  00000+0  11649-3 0  9996","line2":"2 64049  97.3713 334.6784 0001922 158.8274 201.3041 15.20313577 74768","mean_motion":15.20313577,"eccentricity":0.0001922,"inclination_deg":97.3713,"raan_deg":334.6784,"arg_perigee_deg":158.8274,"mean_anomaly_deg":201.3041,"bstar":0.00011649,"rev_number":7476,"period_min":94.717301863575,"perigee_km":503.57107851511,"apogee_km":506.21691563038,"semimajor_km":6883.0309970727,"source":"CELESTRAK","updated_at":"2026-09-22T09:00:29.522680Z"}}}